Regional Weather Roundup
Issued by NWS Albany, NY

Home | Current Version | Previous Version | Graphics & Text | Print | Product List | Glossary On
Versions: 1 2 3 4 5 6 7 8 9 10 11 12 13 14 15 16 17 18 19 20 21 22 23 24 25 26 27
000
ASUS41 KALY 200610
RWRALY

NEW YORK STATE HOURLY WEATHER ROUNDUP
NATIONAL WEATHER SERVICE ALBANY NY
200 AM EDT SUN APR 20 2014

NOTE: "FAIR" INDICATES FEW OR NO CLOUDS BELOW 12,000 FEET WITH NO
SIGNIFICANT WEATHER AND/OR NO OBSTRUCTIONS TO VISIBILITY.

NYZ032-033-038>043-046>054-057>066-NYZ062>081-200700-
EAST


CITY           SKY/WX    TMP DP  RH WIND       PRES   REMARKS
ALBANY         MOCLDY    41  22  46 N6        30.43S
GLENS FALLS    FAIR      37  26  64 N7        30.44F WCI  32
POUGHKEEPSIE   FAIR      40  28  62 NE3       30.41R
NEWBURGH       CLEAR     46  27  46 E12       30.41
MONTGOMERY     FAIR      41  26  55 N8        30.41R
WHITE PLAINS   FAIR      48  24  39 NE9       30.37R
ISLIP          FAIR      49  32  52 NE8       30.36R
NEW YORK CITY  FAIR      51  25  36 NE12      30.37R
CENTRAL PARK   FAIR      52  24  33 NE9G17    30.40R
$$

NYZ005>009-017-018-044>046-055-056-200700-
CENTRAL


CITY           SKY/WX    TMP DP  RH WIND       PRES   REMARKS
FULTON         FAIR      32  26  78 CALM      30.43S
SYRACUSE       FAIR      33  28  81 CALM      30.43S
ROME           FAIR      33  23  66 CALM      30.43F
ELMIRA         FAIR      31  25  78 CALM      30.42S
BINGHAMTON     FAIR      37  26  64 NE3       30.38R
MONTICELLO     FAIR      37  27  65 SE5       30.40R WCI  34
$$

NYZ026>034-041>043-200700-
NORTH


CITY           SKY/WX    TMP DP  RH WIND       PRES   REMARKS
WATERTOWN      FAIR      31  25  78 E6        30.42F WCI  25
FORT DRUM      NOT AVBL
MASSENA        FAIR      28  24  85 CALM      30.47S
SARANAC LAKE   FAIR      19  18  95 CALM      30.40S
PLATTSBURGH    FAIR      33  21  61 W3        30.46F
$$

NYZ001>004-010>016-019>021-200700-
WEST


CITY           SKY/WX    TMP DP  RH WIND       PRES   REMARKS
NIAGARA FALLS  FAIR      36  26  67 E6        30.41S WCI  31
BUFFALO        FAIR      39  26  59 E3        30.41R
DUNKIRK        FAIR      38  27  64 NE8       30.36F WCI  32
JAMESTOWN      FAIR      39  25  56 E5        30.35S
WELLSVILLE     FAIR      35  23  61 E5        30.38S WCI  31
ROCHESTER      FAIR      36  29  75 CALM      30.43R
PENN YAN       FAIR      33  26  75 S3        30.42S
$$

             KEY
       WCI = WIND CHILL INDEX
       VSB = VISIBILITY
       HX  = HEAT INDEX
$$



USA.gov is the U.S. government's official web portal to all federal, state and local government web resources and services.